Location: Cerbedi�res
(48.2182°N, 1.4849°W)
Time: 02:15:54
(UTC+00:00)

Cosmos 2369 Rocket - Pass Details

Date: 03 March 2021
Orbit: 829 x 852 km, 71.0° (Epoch: 16 April)

Event Time Altitude Azimuth Distance (km) Brightness Sun altitude
Rises 21:27:59 0° 336° (NNW) 3,383 6.1 -34.9°
Reaches altitude 10° 21:30:50 10° 349° (N) 2,447 5.1 -35.3°
Enters shadow 21:32:53 19° 6° (N) 1,893 4.2 -35.6°
